Location: Sommers-Bausch Observatory
(40.0037°N, 105.2635°W)
Time: 23:51:16
(UTC-07:00)

Amateur Radio Satellites - All Passes

Search period start: 12 February 2016 23:21
Search period end: 13 February 2016 23:21
Location: Sommers-Bausch Observatory, 40.0037°N, 105.2635°W

Satellite Date Start Highest point End Downlink Frequencies (MHz)
Time Altitude Azimuth
CUBEBUG 1 12 Feb 23:25:04 23:29:11 37° 262° (W) 23:33:18 437.445
QB50P1 12 Feb 23:25:39 23:29:52 77° 103° (ESE) 23:34:04 145.935-145.965
DX 1 12 Feb 23:27:56 23:31:36 26° 264° (W) 23:35:18 434.975-435.025
50 SAT 12 Feb 23:31:43 23:34:09 17° 266° (W) 23:36:35 437.505
PHONESAT 2.4 12 Feb 23:39:53 23:43:01 43° 159° (SSE) 23:46:10 2401.200-2431.200
DANDE 12 Feb 23:47:57 23:50:13 11° 75° (ENE) 23:52:29 436.750
ITUPSAT 1 12 Feb 23:50:50 23:52:01 11° 60° (ENE) 23:53:12 437.325
ESTCUBE 1 12 Feb 23:52:29 23:55:09 15° 268° (W) 23:57:50 437.505/2401.250
BEESAT 3 12 Feb 23:53:21 23:55:47 15° 44° (NE) 23:58:12 437.485
BEESAT 12 Feb 23:56:03 23:58:07 13° 61° (ENE) 00:00:09 436.000
ANTELSAT 12 Feb 23:58:02 00:00:01 13° 296° (WNW) 00:02:01 437.575/2403.000
BUGSAT 1 13 Feb 00:02:57 00:07:00 82° 284° (WNW) 00:11:00 437.445
TIGRISAT 13 Feb 00:04:05 00:05:39 12° 297° (WNW) 00:07:14 435.000
Oscar 19 13 Feb 00:11:55 00:14:06 13° 90° (E) 00:16:18 437.125/150
POLYITAN 1 13 Feb 00:20:18 00:23:45 25° 291° (WNW) 00:27:12 437.675
QB50P2 13 Feb 00:20:49 00:24:14 24° 291° (WNW) 00:27:38 145.880/145.840
CUSAT 1 13 Feb 00:22:22 00:29:34 38° 89° (E) 00:36:41 437.405
BEESAT 2 13 Feb 00:23:25 00:26:23 20° 47° (NE) 00:29:20 435.950
TISAT 1 13 Feb 00:44:30 00:48:23 35° 262° (W) 00:52:17 437.305
SWISSCUBE 13 Feb 00:45:58 00:50:28 43° 71° (ENE) 00:54:59 437.505
POPSAT HIP 1 13 Feb 00:50:53 00:52:51 13° 296° (WNW) 00:54:48 437.405
SPROUT 13 Feb 00:51:17 00:53:02 12° 269° (W) 00:54:47 437.525
DUCHIFAT 1 13 Feb 00:53:15 00:55:11 13° 296° (WNW) 00:57:08 145.980
NANOSAT C BR1 13 Feb 00:53:33 00:55:20 12° 296° (WNW) 00:57:06 145.865
Gurwin Techsat 1B 13 Feb 01:09:29 01:13:05 18° 92° (E) 01:16:39 435.225
Cosmos 2491 13 Feb 01:10:52 01:19:09 44° 74° (ENE) 01:27:23 435.465 / 435.565
PHONESAT 2.4 13 Feb 01:16:54 01:20:12 82° 359° (N) 01:23:28 2401.200-2431.200
DANDE 13 Feb 01:23:42 01:31:28 62° 93° (E) 01:39:48 436.750
ITUPSAT 1 13 Feb 01:24:21 01:29:07 86° 256° (WSW) 01:33:56 437.325
ITAMSAT 1 13 Feb 01:28:12 01:30:37 13° 90° (E) 01:33:01 435.822/435.867
BEESAT 3 13 Feb 01:29:59 01:33:52 55° 242° (WSW) 01:37:42 437.485
BEESAT 13 Feb 01:30:32 01:35:16 73° 257° (WSW) 01:40:03 436.000
Oscar 19 13 Feb 01:48:49 01:53:56 72° 286° (WNW) 01:59:01 437.125/150
STARS 13 Feb 01:49:50 01:51:55 13° 63° (ENE) 01:54:01 437.465
YUBILEINY 13 Feb 01:58:42 02:06:30 38° 86° (E) 02:14:21 435.215
BEESAT 2 13 Feb 02:00:42 02:04:26 39° 244° (WSW) 02:08:08 435.950
JAS-2 13 Feb 02:01:11 02:06:44 83° 285° (WNW) 02:11:56 435.910
CUSAT 1 13 Feb 02:03:54 02:11:40 49° 285° (WNW) 02:19:15 437.405
KKS-1 13 Feb 02:13:48 02:18:01 43° 72° (ENE) 02:22:15 437.445
SWISSCUBE 13 Feb 02:25:05 02:28:26 19° 267° (W) 02:31:50 437.505
MOZHAYETS 4 13 Feb 02:33:23 02:37:12 27° 68° (ENE) 02:41:03
AIST 2 13 Feb 02:45:25 02:49:31 57° 56° (NE) 02:53:34 435.215
Gurwin Techsat 1B 13 Feb 02:48:09 02:53:21 55° 288° (WNW) 02:58:31 435.225
PHONESAT 2.4 13 Feb 02:54:12 02:57:29 77° 190° (S) 03:00:45 2401.200-2431.200
AO-7 13 Feb 03:02:37 03:09:58 34° 97° (E) 03:17:15 29.400- 29.500
ITAMSAT 1 13 Feb 03:05:21 03:10:35 72° 286° (WNW) 03:15:47 435.822/435.867
DANDE 13 Feb 03:07:52 03:14:54 32° 292° (WNW) 03:22:15 436.750
Cosmos 2491 13 Feb 03:07:55 03:15:50 40° 273° (W) 03:23:47 435.465 / 435.565
Cosmos 2504 13 Feb 03:14:26 03:21:00 25° 80° (E) 03:27:41 435.465 / 435.565
SO-50 13 Feb 03:16:06 03:20:22 31° 113° (ESE) 03:24:43 436.795
STARS 13 Feb 03:23:28 03:27:47 59° 259° (WSW) 03:32:09 437.465
CUBESAT XI-V 13 Feb 03:27:04 03:28:04 11° 61° (ENE) 03:29:03 437.345
HORYU 2 13 Feb 03:33:35 03:36:36 18° 93° (E) 03:39:37 437.375
JAS-2 13 Feb 03:49:57 03:50:46 10° 305° (NW) 03:51:36 435.910
KKS-1 13 Feb 03:51:56 03:54:47 17° 267° (W) 03:57:40 437.445
YUBILEINY 13 Feb 03:54:43 04:03:03 47° 285° (WNW) 04:11:31 435.215
M-CUBED/EXP-1 PRIME 13 Feb 04:08:50 04:12:08 38° 105° (ESE) 04:15:37 437.505
MOZHAYETS 4 13 Feb 04:10:22 04:14:17 28° 265° (W) 04:18:14
AUBIESAT-1 13 Feb 04:15:21 04:18:41 38° 104° (ESE) 04:22:12 437.475
AIST 2 13 Feb 04:25:46 04:27:30 12° 252° (WSW) 04:29:14 435.215
PHONESAT 2.4 13 Feb 04:31:47 04:34:28 23° 208° (SSW) 04:37:07 2401.200-2431.200
AO-7 13 Feb 04:54:58 05:02:58 54° 295° (WNW) 05:10:56 29.400- 29.500
SO-50 13 Feb 04:56:20 05:00:49 34° 311° (NW) 05:05:20 436.795
CUBESAT XI-V 13 Feb 05:00:01 05:04:43 85° 260° (W) 05:09:28 437.345
Cosmos 2504 13 Feb 05:04:52 05:13:29 71° 280° (W) 05:22:25 435.465 / 435.565
HORYU 2 13 Feb 05:09:09 05:13:18 41° 289° (WNW) 05:17:30 437.375
CUTE-I 13 Feb 05:10:57 05:14:12 16° 91° (E) 05:17:24 437.470
Cubesat XI-IV 13 Feb 05:25:09 05:29:17 22° 94° (E) 05:33:23 437.490
STRAND 1 13 Feb 05:31:53 05:36:14 29° 67° (ENE) 05:40:36 437.568
M-CUBED/EXP-1 PRIME 13 Feb 05:44:51 05:46:31 13° 298° (WNW) 05:48:14 437.505
AUBIESAT-1 13 Feb 05:51:12 05:53:01 14° 298° (WNW) 05:54:53 437.475
O/OREOS (USA 219) 13 Feb 05:52:24 05:53:40 11° 97° (E) 05:54:56 437.305
BRITE-PL 13 Feb 06:15:51 06:20:01 33° 96° (E) 06:23:55 437.365/2234.400
LilacSat-2 13 Feb 06:20:47 06:24:34 73° 101° (E) 06:28:21 437.200
PRISM 13 Feb 06:33:42 06:37:24 32° 70° (ENE) 06:41:09 437.425
CUTE-I 13 Feb 06:49:19 06:54:39 63° 288° (WNW) 06:59:56 437.470
AO-7 13 Feb 06:51:15 06:53:51 12° 316° (NW) 06:56:28 29.400- 29.500
GOMX 1 13 Feb 07:02:21 07:06:35 51° 99° (E) 07:10:39 467.674
Cosmos 2504 13 Feb 07:04:14 07:08:37 14° 301° (WNW) 07:13:05 435.465 / 435.565
Cubesat XI-IV 13 Feb 07:04:25 07:09:33 46° 289° (WNW) 07:14:40 437.490
HO-68 13 Feb 07:06:31 07:11:35 20° 92° (E) 07:16:36 435.675
STRAND 1 13 Feb 07:10:42 07:15:16 33° 263° (W) 07:19:54 437.568
GONETS M04 13 Feb 07:25:17 07:32:29 30° 83° (E) 07:39:43
O/OREOS (USA 219) 13 Feb 07:28:00 07:32:26 65° 293° (WNW) 07:36:56 437.305
CUTE 1.7 + AOD 2 13 Feb 07:39:55 07:43:33 26° 95° (E) 07:47:11 437.475
SEEDS 13 Feb 07:39:57 07:43:07 20° 94° (E) 07:46:15 437.485
AAUSAT CUBESAT 2 13 Feb 07:44:57 07:46:57 13° 91° (E) 07:48:57 437.432
BRITE-PL 13 Feb 07:54:48 07:58:17 21° 294° (WNW) 08:01:35 437.365/2234.400
DOVE 4 13 Feb 08:02:22 08:06:31 65° 285° (WNW) 08:10:37 437.250
Cosmos 2499 13 Feb 08:04:21 08:10:57 24° 81° (E) 08:17:35 435.465 / 435.565
PRISM 13 Feb 08:09:43 08:12:48 20° 266° (W) 08:15:54 437.425
CUBEBUG 2 13 Feb 08:10:57 08:13:44 17° 93° (E) 08:16:31 437.445
AO-85 13 Feb 08:18:10 08:22:11 22° 109° (ESE) 08:26:19 145.980
CANX-2 13 Feb 08:25:12 08:29:30 81° 284° (WNW) 08:33:48 2200.000
CINEMA 3 13 Feb 08:28:38 08:32:49 79° 103° (ESE) 08:37:02 145.822/145.860
UNISAT 6 13 Feb 08:34:31 08:37:10 16° 65° (ENE) 08:39:48 437.425
GOMX 1 13 Feb 08:42:07 08:44:11 13° 297° (WNW) 08:46:14 467.674
ZACube-1 13 Feb 08:48:32 08:51:54 22° 95° (E) 08:55:18 437.345
HO-68 13 Feb 08:52:42 08:59:54 73° 289° (WNW) 09:07:02 435.675
COMPASS 1 13 Feb 08:53:34 08:57:49 79° 283° (WNW) 09:02:01 437.405
FUNcube-1 13 Feb 08:55:25 08:58:58 25° 96° (E) 09:02:34 145.935
AIST 1 13 Feb 09:04:11 09:06:52 16° 86° (E) 09:09:33
PCSat 13 Feb 09:08:16 09:12:58 31° 109° (ESE) 09:17:40 145.827
SEEDS 13 Feb 09:15:03 09:18:53 33° 289° (WNW) 09:22:43 437.485
CUTE 1.7 + AOD 2 13 Feb 09:15:46 09:19:19 25° 291° (WNW) 09:22:50 437.475
ANTELSAT 13 Feb 09:17:45 09:21:52 47° 73° (ENE) 09:25:58 437.575/2403.000
AAUSAT CUBESAT 2 13 Feb 09:18:38 09:22:43 49° 287° (WNW) 09:26:46 437.432
GONETS M04 13 Feb 09:20:18 09:28:46 56° 282° (WNW) 09:37:20
Oscar 11 13 Feb 09:22:03 09:26:25 70° 101° (ESE) 09:30:45 145.826/435.025
TIGRISAT 13 Feb 09:23:13 09:27:23 52° 73° (ENE) 09:31:32 435.000
POLYITAN 1 13 Feb 09:37:11 09:40:08 19° 67° (ENE) 09:43:06 437.675
QB50P2 13 Feb 09:37:32 09:40:35 20° 67° (ENE) 09:43:37 145.880/145.840
RS-15 13 Feb 09:37:42 09:47:08 34° 104° (ESE) 09:56:55 29.354- 29.394
UWE-3 13 Feb 09:38:50 09:43:03 66° 284° (WNW) 09:47:21 435.000/436.395/437.385
CUBEBUG 2 13 Feb 09:46:34 09:50:29 38° 288° (WNW) 09:54:29 437.445
Cosmos 2499 13 Feb 09:54:26 10:03:11 72° 280° (W) 10:12:05 435.465 / 435.565
AO-85 13 Feb 09:57:04 10:02:20 55° 306° (NW) 10:07:45 145.980
DELFI C3 13 Feb 10:01:55 10:05:58 73° 285° (WNW) 10:10:00 145.870
POPSAT HIP 1 13 Feb 10:05:16 10:09:09 36° 71° (ENE) 10:13:03 437.405
DUCHIFAT 1 13 Feb 10:07:10 10:11:00 36° 71° (ENE) 10:14:51 145.980
NANOSAT C BR1 13 Feb 10:07:27 10:11:21 38° 71° (ENE) 10:15:15 145.865
HUMSAT D 13 Feb 10:09:18 10:13:25 52° 100° (E) 10:17:33 437.325/437.525
UNISAT 6 13 Feb 10:09:27 10:13:33 43° 261° (W) 10:17:38 437.425
ESTCUBE 1 13 Feb 10:09:41 10:10:41 11° 90° (E) 10:11:40 437.505/2401.250
QB50P1 13 Feb 10:17:17 10:21:23 51° 73° (ENE) 10:25:29 145.935-145.965
ZACube-1 13 Feb 10:24:29 10:28:11 30° 290° (WNW) 10:31:57 437.345
FUNcube-1 13 Feb 10:31:36 10:35:09 26° 291° (WNW) 10:38:45 145.935
AIST 1 13 Feb 10:39:56 10:44:05 40° 282° (WNW) 10:48:16
HO-68 13 Feb 10:42:55 10:46:22 14° 308° (NW) 10:49:49 435.675
VELOX 1 13 Feb 10:48:54 10:52:34 25° 96° (E) 10:56:11 145.980
PCSat 13 Feb 10:51:14 10:56:14 37° 307° (NW) 11:01:16 145.827
BUGSAT 1 13 Feb 10:51:40 10:55:47 61° 75° (ENE) 10:59:54 437.445
ANTELSAT 13 Feb 10:56:36 10:58:50 14° 268° (W) 11:01:04 437.575/2403.000
UKube-1 13 Feb 10:57:14 11:00:57 27° 96° (E) 11:04:38 .
Oscar 11 13 Feb 11:00:43 11:01:57 11° 298° (WNW) 11:03:11 145.826/435.025
50 SAT 13 Feb 11:02:17 11:05:56 44° 99° (E) 11:09:35 437.505
TIGRISAT 13 Feb 11:02:30 11:04:23 13° 269° (W) 11:06:15 435.000
CUSAT 1 13 Feb 11:02:41 11:05:48 16° 61° (ENE) 11:08:30 437.405
AISAT 13 Feb 11:05:55 11:10:06 40° 99° (E) 11:14:14 437.250
POLYITAN 1 13 Feb 11:11:49 11:15:42 35° 262° (W) 11:19:36 437.675
QB50P2 13 Feb 11:12:18 11:16:09 34° 262° (W) 11:20:02 145.880/145.840
CUBEBUG 1 13 Feb 11:14:09 11:18:17 40° 98° (E) 11:22:21 437.445
DX 1 13 Feb 11:15:56 11:20:12 54° 100° (E) 11:24:26 434.975-435.025
Oscar 19 13 Feb 11:27:35 11:31:12 19° 63° (ENE) 11:34:47 437.125/150
AO-85 13 Feb 11:41:56 11:44:06 12° 326° (NW) 11:46:16 145.980
POPSAT HIP 1 13 Feb 11:42:12 11:45:03 18° 266° (W) 11:47:56 437.405
ESTCUBE 1 13 Feb 11:43:24 11:47:57 69° 284° (WNW) 11:52:26 437.505/2401.250
DUCHIFAT 1 13 Feb 11:43:56 11:46:50 18° 267° (W) 11:49:43 145.980
NANOSAT C BR1 13 Feb 11:44:28 11:47:14 17° 267° (W) 11:50:01 145.865
HUMSAT D 13 Feb 11:46:34 11:48:37 13° 295° (WNW) 11:50:41 437.325/437.525
RS-15 13 Feb 11:47:31 11:58:37 68° 307° (NW) 12:10:23 29.354- 29.394
SO-50 13 Feb 11:48:08 11:52:10 26° 46° (NE) 11:56:06 436.795
Cosmos 2499 13 Feb 11:53:22 11:57:58 15° 300° (WNW) 12:02:37 435.465 / 435.565
QB50P1 13 Feb 11:55:35 11:57:27 13° 269° (W) 11:59:20 145.935-145.965
DANDE 13 Feb 12:07:44 12:13:53 40° 70° (ENE) 12:18:34 436.750
YUBILEINY 13 Feb 12:10:18 12:15:50 18° 62° (ENE) 12:21:18 435.215
JAS-2 13 Feb 12:10:39 12:17:40 44° 69° (ENE) 12:24:04 435.910
VELOX 1 13 Feb 12:25:14 12:29:00 28° 291° (WNW) 12:32:44 145.980
TISAT 1 13 Feb 12:29:00 12:32:49 34° 97° (E) 12:36:36 437.305
Gurwin Techsat 1B 13 Feb 12:29:41 12:34:07 28° 66° (ENE) 12:38:34 435.225
BUGSAT 1 13 Feb 12:30:50 12:31:32 10° 269° (W) 12:32:14 437.445
UKube-1 13 Feb 12:33:22 12:36:54 25° 292° (WNW) 12:40:25 .
SPROUT 13 Feb 12:35:06 12:39:21 68° 285° (WNW) 12:43:34 437.525
50 SAT 13 Feb 12:37:49 12:39:33 13° 295° (WNW) 12:41:18 437.505
AISAT 13 Feb 12:43:16 12:46:16 18° 295° (WNW) 12:49:16 437.250
CUSAT 1 13 Feb 12:43:43 12:48:48 47° 268° (W) 12:52:37 437.405
ITAMSAT 1 13 Feb 12:45:03 12:48:47 20° 63° (ENE) 12:52:33 435.822/435.867
SWISSCUBE 13 Feb 12:49:05 12:50:40 11° 90° (E) 12:52:15 437.505
CUBEBUG 1 13 Feb 12:51:19 12:54:15 18° 295° (WNW) 12:57:09 437.445
DX 1 13 Feb 12:53:40 12:55:57 14° 297° (WNW) 12:58:12 434.975-435.025
Oscar 19 13 Feb 13:05:02 13:10:05 53° 260° (W) 13:15:09 437.125/150
ITUPSAT 1 13 Feb 13:26:02 13:30:03 26° 95° (E) 13:34:03 437.325
SO-50 13 Feb 13:28:19 13:32:48 41° 245° (WSW) 13:37:08 436.795
BEESAT 13 Feb 13:31:38 13:35:51 30° 97° (E) 13:40:03 436.000
DANDE 13 Feb 13:51:21 13:56:22 25° 277° (W) 14:00:26 436.750
JAS-2 13 Feb 13:55:50 14:02:40 36° 263° (W) 14:09:00 435.910
ISS 13 Feb 13:56:33 13:59:41 48° 139° (SE) 14:02:51 145.825
AO-7 13 Feb 14:00:40 14:08:28 45° 62° (ENE) 14:16:14 29.400- 29.500
RS-15 13 Feb 14:04:45 14:13:52 26° 336° (NNW) 14:23:23 29.354- 29.394
YUBILEINY 13 Feb 14:05:06 14:14:01 86° 84° (E) 14:22:49 435.215
TISAT 1 13 Feb 14:05:17 14:08:15 19° 293° (WNW) 14:11:12 437.305
Gurwin Techsat 1B 13 Feb 14:09:02 14:13:54 36° 262° (W) 14:18:48 435.225
Cosmos 2491 13 Feb 14:11:03 14:19:20 51° 89° (E) 14:27:38 435.465 / 435.565
ITAMSAT 1 13 Feb 14:22:51 14:27:52 50° 260° (W) 14:32:56 435.822/435.867
SWISSCUBE 13 Feb 14:24:09 14:28:57 71° 285° (WNW) 14:33:43 437.505
HORYU 2 13 Feb 14:31:39 14:34:21 16° 64° (ENE) 14:37:04 437.375
M-CUBED/EXP-1 PRIME 13 Feb 14:55:46 14:59:10 45° 70° (ENE) 15:02:25 437.505
Cosmos 2504 13 Feb 14:59:16 15:07:19 44° 74° (ENE) 15:14:48 435.465 / 435.565
AUBIESAT-1 13 Feb 15:01:50 15:05:12 43° 69° (ENE) 15:08:26 437.475
ITUPSAT 1 13 Feb 15:03:36 15:07:54 33° 291° (WNW) 15:12:09 437.325
BEESAT 13 Feb 15:09:28 15:13:33 28° 292° (WNW) 15:17:36 436.000
STARS 13 Feb 15:13:58 15:17:36 25° 96° (E) 15:21:12 437.465
BEESAT 3 13 Feb 15:20:44 15:24:08 27° 114° (ESE) 15:27:32 437.485
ISS 13 Feb 15:33:36 15:36:18 23° 335° (NNW) 15:38:59 145.825
KKS-1 13 Feb 15:41:33 15:45:59 83° 284° (WNW) 15:50:25 437.445
BEESAT 2 13 Feb 15:52:08 15:55:52 39° 116° (ESE) 15:59:38 435.950
AO-7 13 Feb 15:53:26 16:01:11 42° 260° (W) 16:09:02 29.400- 29.500
O/OREOS (USA 219) 13 Feb 15:59:57 16:03:32 22° 58° (ENE) 16:07:07 437.305
YUBILEINY 13 Feb 16:04:04 16:09:33 19° 282° (WNW) 16:15:03 435.215
MOZHAYETS 4 13 Feb 16:05:06 16:09:45 71° 102° (ESE) 16:14:23
HORYU 2 13 Feb 16:06:17 16:10:32 47° 260° (W) 16:14:49 437.375
Cosmos 2491 13 Feb 16:08:44 16:16:24 34° 289° (WNW) 16:24:09 435.465 / 435.565
RS-15 13 Feb 16:23:40 16:32:13 22° 12° (NNE) 16:40:59 29.354- 29.394
CUTE-I 13 Feb 16:31:48 16:36:07 26° 65° (ENE) 16:40:26 437.470
AIST 2 13 Feb 16:44:15 16:46:25 14° 109° (ESE) 16:48:37 435.215
Cubesat XI-IV 13 Feb 16:46:21 16:51:06 34° 68° (ENE) 16:55:53 437.490
STARS 13 Feb 16:50:13 16:53:55 28° 291° (WNW) 16:57:37 437.465
AO-85 13 Feb 16:50:25 16:54:06 19° 41° (NE) 16:57:35 145.980
Cosmos 2504 13 Feb 16:52:56 17:00:31 38° 274° (W) 17:07:38 435.465 / 435.565
CUBESAT XI-V 13 Feb 16:57:52 17:01:46 25° 95° (E) 17:05:37 437.345
BEESAT 3 13 Feb 16:58:28 17:01:50 26° 310° (NW) 17:05:14 437.485
LilacSat-2 13 Feb 17:02:22 17:05:45 31° 72° (ENE) 17:09:08 437.200
ISS 13 Feb 17:12:38 17:13:39 11° 355° (N) 17:14:39 145.825
BRITE-PL 13 Feb 17:24:29 17:29:49 43° 71° (ENE) 17:34:56 437.365/2234.400
BEESAT 2 13 Feb 17:30:53 17:33:55 20° 313° (NW) 17:36:58 435.950
DOVE 4 13 Feb 17:32:02 17:34:07 13° 64° (ENE) 17:36:09 437.250
HO-68 13 Feb 17:36:29 17:40:25 16° 53° (NE) 17:44:19 435.675
GONETS M04 13 Feb 17:36:59 17:41:14 14° 59° (ENE) 17:45:29
O/OREOS (USA 219) 13 Feb 17:38:49 17:43:03 37° 255° (WSW) 17:47:17 437.305
MOZHAYETS 4 13 Feb 17:44:25 17:46:19 12° 298° (WNW) 17:48:13
PCSat 13 Feb 17:56:30 18:00:54 24° 49° (NE) 18:05:16 145.827
GOMX 1 13 Feb 18:08:35 18:13:50 57° 74° (ENE) 18:18:48 467.674
CUTE-I 13 Feb 18:10:56 18:15:55 40° 262° (W) 18:20:57 437.470
AIST 2 13 Feb 18:20:24 18:24:28 52° 305° (NW) 18:28:34 435.215
Cubesat XI-IV 13 Feb 18:26:33 18:31:09 29° 264° (W) 18:35:48 437.490
AO-85 13 Feb 18:30:08 18:35:14 71° 240° (WSW) 18:39:50 145.980
SEEDS 13 Feb 18:32:22 18:34:25 13° 64° (ENE) 18:36:28 437.485
CUTE 1.7 + AOD 2 13 Feb 18:32:43 18:35:35 18° 66° (ENE) 18:38:28 437.475
CUBESAT XI-V 13 Feb 18:35:00 18:39:08 31° 291° (WNW) 18:43:14 437.345
RS-15 13 Feb 18:37:24 18:48:57 47° 44° (NE) 19:00:39 29.354- 29.394
LilacSat-2 13 Feb 18:37:42 18:40:09 16° 267° (W) 18:42:36 437.200
ISS 13 Feb 18:49:15 18:51:11 15° 16° (NNE) 18:53:07 145.825
BRITE-PL 13 Feb 19:03:42 19:08:20 26° 266° (W) 19:12:53 437.365/2234.400
DOVE 4 13 Feb 19:06:14 19:11:17 74° 258° (WSW) 19:16:03 437.250
CUBEBUG 2 13 Feb 19:09:34 19:11:43 14° 65° (ENE) 19:13:50 437.445
CANX-2 13 Feb 19:17:03 19:21:11 64° 76° (ENE) 19:25:24 2200.000
HO-68 13 Feb 19:19:49 19:26:59 80° 72° (ENE) 19:34:12 435.675
STRAND 1 13 Feb 19:21:07 19:26:18 87° 102° (ESE) 19:31:28 437.568
CINEMA 3 13 Feb 19:29:18 19:33:50 67° 75° (ENE) 19:38:10 145.822/145.860
GONETS M04 13 Feb 19:30:56 19:39:46 73° 81° (E) 19:48:36
PCSat 13 Feb 19:39:19 19:44:35 52° 247° (WSW) 19:49:48 145.827
COMPASS 1 13 Feb 19:43:27 19:47:32 62° 75° (ENE) 19:51:41 437.405
ZACube-1 13 Feb 19:44:43 19:47:20 16° 66° (ENE) 19:49:58 437.345
Cosmos 2499 13 Feb 19:47:45 19:55:28 41° 73° (ENE) 20:02:36 435.465 / 435.565
GOMX 1 13 Feb 19:48:43 19:52:09 17° 268° (W) 19:55:29 467.674
PRISM 13 Feb 19:50:48 19:54:56 57° 101° (E) 19:59:00 437.425
FUNcube-1 13 Feb 19:51:11 19:54:03 18° 67° (ENE) 19:56:55 145.935
SEEDS 13 Feb 20:05:36 20:09:40 52° 260° (W) 20:13:47 437.485
CUTE 1.7 + AOD 2 13 Feb 20:07:14 20:11:09 37° 263° (W) 20:15:05 437.475
AAUSAT CUBESAT 2 13 Feb 20:07:50 20:11:58 84° 260° (W) 20:16:09 437.432
Oscar 11 13 Feb 20:15:59 20:20:06 48° 73° (ENE) 20:24:16 145.826/435.025
ISS 13 Feb 20:24:58 20:28:11 58° 35° (NE) 20:31:22 145.825
UWE-3 13 Feb 20:35:02 20:39:16 89° 108° (ESE) 20:43:27 435.000/436.395/437.385
CUBEBUG 2 13 Feb 20:43:47 20:47:57 50° 260° (W) 20:52:03 437.445
DELFI C3 13 Feb 20:47:16 20:51:09 57° 75° (ENE) 20:55:06 145.870
AIST 1 13 Feb 20:47:31 20:51:39 42° 78° (ENE) 20:55:44
RS-15 13 Feb 20:50:03 21:01:55 61° 247° (WSW) 21:13:52 29.354- 29.394
HUMSAT D 13 Feb 21:00:16 21:03:53 32° 71° (ENE) 21:07:33 437.325/437.525
STRAND 1 13 Feb 21:02:49 21:04:43 12° 301° (WNW) 21:06:36 437.568
ESTCUBE 1 13 Feb 21:09:44 21:10:19 10° 61° (ENE) 21:10:55 437.505/2401.250
CINEMA 3 13 Feb 21:10:22 21:11:19 11° 269° (W) 21:12:17 145.822/145.860
HO-68 13 Feb 21:10:48 21:15:24 18° 269° (W) 21:20:02 435.675
ANTELSAT 13 Feb 21:12:50 21:13:25 10° 90° (E) 21:13:59 437.575/2403.000
TIGRISAT 13 Feb 21:17:26 21:18:46 11° 91° (E) 21:20:06 435.000
ZACube-1 13 Feb 21:19:24 21:23:20 39° 262° (W) 21:27:15 437.345
COMPASS 1 13 Feb 21:23:17 21:23:31 10° 271° (W) 21:23:45 437.405
FUNcube-1 13 Feb 21:26:14 21:30:04 34° 262° (W) 21:33:52 145.935
PRISM 13 Feb 21:28:00 21:29:46 12° 297° (WNW) 21:31:31 437.425
GONETS M04 13 Feb 21:29:15 21:35:40 23° 280° (W) 21:42:05
Cosmos 2499 13 Feb 21:41:04 21:48:29 39° 274° (W) 21:55:22 435.465 / 435.565
50 SAT 13 Feb 21:42:30 21:45:15 20° 68° (ENE) 21:48:00 437.505
VELOX 1 13 Feb 21:45:54 21:49:19 22° 67° (ENE) 21:52:45 145.980
UKube-1 13 Feb 21:51:30 21:54:52 23° 67° (ENE) 21:58:16 .
Oscar 11 13 Feb 21:54:15 21:56:31 14° 269° (W) 21:58:46 145.826/435.025
UNISAT 6 13 Feb 22:01:24 22:05:29 37° 98° (E) 22:09:39 437.425
ISS 13 Feb 22:02:27 22:04:16 14° 230° (SW) 22:06:04 145.825
AISAT 13 Feb 22:02:41 22:06:42 34° 70° (ENE) 22:10:45 437.250
CUBEBUG 1 13 Feb 22:09:26 22:13:22 32° 70° (ENE) 22:17:19 437.445
DX 1 13 Feb 22:10:39 22:14:47 43° 71° (ENE) 22:18:56 434.975-435.025
AIST 1 13 Feb 22:26:27 22:28:49 15° 275° (W) 22:31:10
HUMSAT D 13 Feb 22:36:44 22:39:36 18° 266° (W) 22:42:30 437.325/437.525
ESTCUBE 1 13 Feb 22:41:54 22:46:26 83° 257° (WSW) 22:51:01 437.505/2401.250
PHONESAT 2.4 13 Feb 22:45:15 22:48:10 30° 155° (SSE) 22:51:06 2401.200-2431.200
ANTELSAT 13 Feb 22:46:10 22:50:31 68° 286° (WNW) 22:54:58 437.575/2403.000
TIGRISAT 13 Feb 22:51:30 22:55:49 63° 286° (WNW) 23:00:13 435.000
POLYITAN 1 13 Feb 22:57:15 23:01:08 35° 98° (E) 23:05:00 437.675
QB50P2 13 Feb 22:57:38 23:01:34 37° 98° (E) 23:05:29 145.880/145.840
RS-15 13 Feb 23:08:53 23:11:43 11° 267° (W) 23:14:34 29.354- 29.394
